Погода в Львове

Погода в Львове : погода сейчас, прогноз погоды и архив. Всё, что Вы хотите узнать о погоде в Львове!

Поиск расширенной информации на нашем сайте:

Полезная информация:

Другие новости

Новости СМИ2

Главная страница сайта

Новости сайта

03.07.2017

Напоминаем, что на нашем специализированном сайте Метеоцентр.Азия вы можете получить высокодетализированные автоматические прогнозы погоды по пунктам России, СНГ и мира в авиационном формате (включающие направление и скорость ветра, видимость, явления погоды, количество и форму облачности, нижнюю и верхнюю границу облачности).

Рекомендуем:

Погода в Львове - сегодня

Время (UTC), дата Ветер
(°,м/с) 
Видим.   Явления Облачность Т
(°С)
Тd
(°С)
f(%) Тe
(°С)
Pmin
(гПа)
dP
(гПа)
Po
(мм)
O2
(г/м3)
Тmin Tmax R s Состояние
почвы
21 18.05.19 120 (ЮВ) 10 км  {ливн. осадки}  10/10 840 м кучево-дожд. 
[Cb calv]
+14.8 +14.1 96 +23  1009.9  0.4  729  276           
00 19.05.19 050 (СВ) 10 км  {ливн. осадки}  8/0 средняя 
[Ac trans]
+14.1 +13.4 96 +22  1009.4  -0.6  729  276      0.3     
03 19.05.19 090 (В) 10 км    10/10 210 м 
[St]
+14.3 +13.7 96 +22  1009  -0.4  728  276           
06 19.05.19 160 (Ю) 6000 м  дымка  10/10 100 м 
[St]
+15 +13.8 93 +22  1009.4  0.5  729  276  +13.6    0.3     
09 19.05.19 130 (ЮВ) 10 км    8/8 450 м 
[Sc]
+19 +15.5 80 +30  1009.2  0.4  729  271           
12 19.05.19 140 (ЮВ) 10 км    4/4 1000 м 
[Cu hum]
+22.7 +16 66 +34  1008.1  -0.6  729  268           
15 19.05.19 150 (ЮВ) 10 км    6/6 960 м 
[Cu med, cong]
+23.1 +16.7 67 +36  1007  -1  728  267           
18 19.05.19 110 (В) 10 км    4/4 1000 м 
[Cu med, cong]
+21.3 +16.2 73 +33  1007.6  0.3  728  269    +24.2       
21 19.05.19 120 (ЮВ) 10 км    4/0 средняя 
[Ac trans]
+18.8 +16.7 88 +32  1007.6  -0.3  728  271           
00 20.05.19 100 (В) 10 км    3/0 средняя 
[Ac trans]
+17.5 +16.2 92 +31  1006.8  -0.9  727  272           
03 20.05.19 120 (ЮВ) 10 км    3/0 средняя 
[Ac trans]
+17.1 +15.2 89 +27  1005.4  -1.4  726  272           
06 20.05.19 150 (ЮВ) 10 км    6/0 средняя, верхняя 
[Ac trans|Ci fib]
+18.4 +16.1 86 +30  1006.4  1.1  727  271  +17         
09 20.05.19 150 (ЮВ) 10 км    6/0 средняя 
[Ac trans]
+21.8 +16.4 71 +34  1006.4  0.4  727  268           
12 20.05.19 150 (ЮВ) 10 км  гроза без осадков  9/9 1000 м кучево-дожд. 
[Cb calv]
+22.5 +17.6 74 +37  1004.9  -1.3  726  266           
15 20.05.19 300 (СЗ) 10 км  гроза, ливневой дождь  10/10 1200 м кучево-дожд. 
[Cb calv]
+14.8 +13.9 94 +24  1007.4  1.4  727  275           
18 20.05.19 060 (СВ) 10 км  гроза, ливневой дождь  10/5 1000 м кучево-дожд., средняя 
[Cb calv|Ac As]
+14.2 +13.3 94 +22  1006.8  -0.7  727  276    +24.1  13     
21 20.05.19 080 (В) 10 км  гроза, ливневой дождь  10/10 330 м кучево-дожд. 
[Cb cap]
+13.6 +13.1 97 +20  1007.6  0.7  727  277           
00 21.05.19 130 (ЮВ) 10 км  слаб. ливневой дождь{гроза}  10/10 450 м кучево-дожд. 
[Cb calv]
+13.1 +12.6 97 +20  1006.3  -1.3  726  277           
03 21.05.19 290 (З) 8000 м  слаб. ливневой дождь  10/10 1200 м кучево-дожд. 
[Cb calv]
+12.9 +12.4 97 +18  1004.3  -2  725  276           
06 21.05.19 330 (СЗ) 6000 м  слаб. ливневой дождь  10/10 100 м кучево-дожд. 
[Cb cap]
+13.2 +12.7 97 +19  1001.7  -2.4  723  275  +12.7    16     
09 21.05.19 200 (Ю) 9000 м  слаб. ливневой дождь  10/10 210 м кучево-дожд. 
[Cb cap]
+13.5 +12.6 94 +19  1003.8  725  276           
12 21.05.19 190 (Ю) 10 км  слаб. ливневой дождь  10/10 1000 м кучево-дожд. 
[Cb calv]
+14.3 +11.9 85 +18  1005.9  2.1  726  276           
15 21.05.19 180 (Ю) 10 км  {ливн. осадки}  8/5 1020 м средняя 
[Sc|Ac trans]
+16.6 +11.7 73 +20  1005.6  726  274           
18 21.05.19 150 (ЮВ) 10 км  {ливн. осадки}  9/5 1000 м кучево-дожд., средняя 
[Cb calv|Ac trans]
+14 +11 82 +16  1006.2  0.3  726  276    +16.9     
21 21.05.19 170 (Ю) 10 км  слаб. ливневой дождь  9/9 1410 м кучево-дожд. 
[Cb calv]
+12.7 +10.2 85 +14  1006.6  0.2  727  278           
Время (UTC), дата Ветер
(°,м/с) 
Видим.   Явления Облачность Т
(°С)
Тd
(°С)
f(%) Тe
(°С)
Pmin
(гПа)
dP
(гПа)
Po
(мм)
O2
(г/м3)
Тmin Tmax R s Состояние
почвы

Для получения пояснительной информации подведите курсор к названию столбца.

ПОГОДА в Львове - архив

Всё, что Вы хотите узнать о погоде в Львове - удобно и подробно!

Выберите нужную дату (начиная с 1 января 2018* года) и нажмите кнопку "Найти".
Будут отображены архивные сводки погоды по пункту Львов, начиная с указанной даты.


Отображать данные в формате CSV (для использования в таблицах Excel)


Внимание! Наш архив погоды предназначен исключительно для личного некоммерческого использования в познавательных целях. Если Вам необходимы официальные справки о состоянии погоды (для производственных, юридических, коммерческих и т.п. целей), обращайтесь в органы Росгидромета.

*Примечание: данная дата относится к архиву по метеостанциям СССР (Россия, СНГ, Балтия).
Архив по метеостанциям Зарубежной Европы и Азии (кроме Китая) хранится 10 дней, по другим регионам земного шара (Китай, Африка, Америка, Австралия, Океания) - 1 день.

Львов - район местоположения метеостанции


Название, широта, долгота, высота метеостанции:
Львов 49.8°ш. 23.9°д. 323 м над ур. моря [Украина]

Дополнительная информация

В oтличие oт бoльшинства пoгoдных сайтoв мы публикуем пoдрoбную метеoинфoрмацию в детальнoм прoфессиoнальнoм фoрмате.

Характеристики температуры и влажнoсти вoздуха измеряются на высoте 2 м в тени вдали oт зданий и деревьев.
Скoрoсть ветра измеряется на высoте 10 м (на урoвне рoста челoвека скoрoсть ветра ниже в 1.5-2 раза). Если метеoстанция нахoдится в гoрoде или в лесу, тo скoрoсть ветра занижена на 2-4 м/с пo сравнению с oткрытым местoм. Скoрoсть ветра над акватoриями крупных рек и oзёр, а также на вершинах хoлмoв на 2-5 м/с выше, чем в oбычных услoвиях.
Атмoсфернoе давление в разных тoчках местнoсти мoжет значительнo oтличаться oт давления на метеoстанции, в зависимoсти oт услoвий рельефа (при пoдъёме на 10 м давление пoнижается примернo на 1 мм рт.ст.).